Monday, September 22, 2014
04:20 UTC
  |  Log In   |  Register Free
Airport Search:

Caruthersville Memorial Airport
(M05)

Caruthersville Memorial Airport Diagram
No Airport Diagram Available

FAA data valid effective September 18, 2014 - November 13, 2014 (unless otherwise noted).

 
 
 
 
 
 
 
 
 
 
 
 
 
 

Current Aviation Weather for Caruthersville Memorial Airport (M05)

METAR data is unavailable for M05. The nearest METAR location is at KHKA (15.6 nm SW from M05).

The most recent METAR observation for KHKA was updated at: 0408
METAR Summary (Translated METAR)
KHKA
220353Z AUTO 36006KT 10SM CLR 15/13 A3010 RMK AO2 SLP191 T01500133
(15.6 nm SW from M05)
KDYR
220355Z 01008KT 10SM CLR 19/08 A3011 RMK AO1
(16.6 nm SE from M05)
TAF
No TAF information found within 50 nm of KBYH
  Airport Weather Conditions for M05

Current weather conditions are
not available for M05


The nearest NOAA weather station
is at HKA, (15.6 nm SW from M05)
  
 Current Weather at HKA
60° F
Fair
North winds at 6.9 mph
HKA NOAA Radar

Pressure: 30.08 in
Humidity: 90%
Wind: North at 6.9 MPH (6 KT)
Dew Point: 57.0°F
Visibility: 10.00 mi


Airport Weather Forecast for M05

Translated METAR and TAF for KBYH
Translated METAR for KBYH (0414 UTC 22 September 2014)
found at http://aviationweather.gov/adds/metars/
 
You entered "KBYH"

Sorry, either there are no data available for your request or you did not enter any valid ICAO airport abbreviations.

See stations.txt for a list of known METAR and TAF locations. Then go back to the ADDS METARs or TAFs page and try again
 
Please try again and, if problems persist, then send mail to ncep.awc.adds@noaa.gov

Find All Airport Services Find A Hotel Find A Rental Car Find A Golf Course Find A Restaurant $100 Hamburger



FBO's on the Field
FBO Company Facility Photos Services Transportation Aviation Fuel Prices: Prices include tax
Catering Weather Repair Courtesy Rental Type 100LL JetA JetA+ MOGAS 8087
 
Add another FBO Facility Photos Catering Weather Repair Courtesy Rental Type 100LL JetA JetA+ MOGAS 8087
Services Transportation Aviation Fuel Prices: Prices include tax
There are no FBO's currently reporting fuel at M05. List your FBO now


model-print
model-print
model-print
model-print